Tracking 18843 objects as of 20-November-2017
HD Live streaming from Space Station
objects crossing your sky now

FLOCK 3P 82

Track FLOCK 3P 82 now!
10-day predictions
FLOCK 3P 82 is classified as:


NORAD ID: 42046
Int'l Code: 2017-008DC
Perigee: 495.9 km
Apogee: 508.0 km
Inclination: 97.5 °
Period: 94.5 minutes
Semi major axis: 6872 km
RCS: Unknown
Launch date: February 15, 2017
Source: United States (US)
Launch site: SRIHARIKOTA (SRI)
aabbcc
Your satellite tracking list
Your tracking list is empty




NASA's NSSDC Master Catalog

Two Line Element Set (TLE):
1 42046U 17008DC  17323.74777912  .00004082  00000-0  17313-3 0  9994
2 42046  97.4804  24.7111 0008777  22.6290 337.5332 15.23653433 41440
Source of the keplerian elements: AFSPC